Wind_Speed
10 12 12 13 14 11 11 6 7 7 10 10 6 9 17 21 20 19 12 12 9 12 10 11 9 8 9 12 14 18 21 23 23 23 23 25 25 24 23 26 31 34 32
10 8 9 12 13 12 13 11 7 6 6 3 6 13 14 17 17 17 16 20 20 18 14 14 10 8 8 9 11 13 16 19 21 24 25 27 28 28 27 29 27 36 35
9 6 10 11 12 11 13 13 14 11 9 6 7 11 10 13 19 18 19 20 21 22 24 18 12 12 11 12 12 12 13 14 16 19 24 26 28 29 28 30 27 35 38
9 11 10 13 12 13 13 13 12 9 10 7 6 9 7 10 18 16 20 22 23 24 24 25 16 13 13 12 15 14 12 13 16 18 20 24 26 27 29 30 32 33 38
4 9 9 12 11 10 12 15 14 14 8 13 12 8 9 13 12 17 22 23 22 25 23 23 21 21 21 18 18 15 13 14 16 19 20 22 24 25 28 28 30 30 35
7 9 11 10 12 12 14 15 16 18 18 16 13 10 11 12 16 18 23 27 28 27 26 25 22 23 24 22 20 17 15 14 15 16 19 21 24 25 27 27 26 25 28
8 12 14 14 13 12 11 16 18 18 17 16 16 13 13 14 19 22 26 27 28 27 27 27 27 25 29 27 23 18 14 15 16 15 15 19 23 25 26 27 26 24 24
7 9 12 13 14 16 17 18 20 18 17 15 15 16 15 17 21 23 25 27 28 29 29 27 26 27 31 30 24 26 23 18 16 15 14 15 21 23 26 27 25 23 19
6 8 11 13 15 16 16 16 17 17 18 18 15 16 16 17 20 21 23 26 28 29 30 29 27 25 24 29 22 35 28 26 18 15 14 15 18 21 24 28 24 21 22
6 7 10 11 12 13 16 17 20 20 18 18 19 18 16 15 15 18 21 24 27 27 28 29 27 27 18 34 31 31 30 24 16 15 12 13 16 20 22 27 26 20 19
5 7 8 9 9 11 13 16 20 21 20 19 18 19 20 20 20 20 21 22 24 27 27 28 22 26 21 22 30 33 29 17 16 14 11 11 15 20 20 24 26 21 20
2 4 6 8 10 11 13 12 17 20 21 23 22 21 19 20 20 18 19 23 27 25 25 23 23 20 19 33 28 33 19 15 15 15 9 10 14 18 21 23 24 26 24
5 2 3 5 7 9 12 14 14 19 22 22 23 23 23 23 23 23 23 24 28 28 25 25 18 17 26 28 27 18 16 17 13 14 7 8 13 16 22 23 27 28 28
8 5 3 4 6 7 9 13 16 18 20 23 26 24 25 24 25 25 26 26 27 27 26 24 21 18 19 25 26 18 14 14 15 15 7 5 9 12 17 24 27 33 31
10 10 6 6 7 8 9 11 14 15 20 22 25 26 26 27 27 27 28 28 27 28 26 23 19 17 18 23 15 9 10 12 10 14 7 1 4 8 12 18 25 31 36
11 11 7 8 7 9 8 10 13 15 18 22 24 25 25 27 29 30 30 30 30 29 27 26 20 16 15 17 8 9 13 11 13 10 5 3 2 3 7 13 20 28 42
10 10 9 9 9 10 10 9 11 14 16 19 22 25 26 26 29 30 31 31 31 30 28 27 25 18 13 11 9 10 9 11 9 9 7 6 8 7 8 11 30 15 29
12 9 9 10 11 11 11 10 11 13 14 17 20 23 25 26 27 30 31 29 31 31 31 29 26 19 12 7 6 7 10 9 8 9 9 6 9 12 19 16 11 24 29
11 10 9 11 11 12 14 12 12 13 14 16 18 21 24 26 26 28 30 31 32 30 32 29 24 18 10 6 8 9 9 9 9 10 11 9 10 13 12 17 13 27 29
11 10 10 11 12 13 14 14 12 12 13 15 17 19 23 25 25 27 30 31 32 31 33 30 24 18 12 10 10 10 7 8 9 12 13 13 17 15 14 13 28 23 32
9 8 7 8 9 12 15 15 13 12 13 14 16 18 21 23 25 26 29 30 31 31 34 32 27 20 16 13 12 13 9 8 9 12 16 19 15 19 17 22 24 41 35
9 9 8 9 10 12 14 16 14 12 11 14 14 17 20 21 23 24 26 28 30 30 33 32 27 21 18 14 13 14 11 10 11 14 17 18 15 21 22 26 31 30 35
15 15 15 15 15 15 16 18 15 13 11 12 14 15 19 19 20 21 23 25 27 27 31 31 28 24 19 16 15 17 12 12 14 17 18 16 18 18 21 25 27 29 27
20 21 20 19 20 20 20 19 17 14 12 12 13 14 17 17 19 19 20 22 24 27 28 30 28 27 23 20 17 24 14 14 14 17 20 18 20 21 24 24 25 27 30
19 18 16 13 14 17 19 18 15 13 13 12 12 14 16 16 17 17 17 18 21 24 25 27 27 27 25 23 20 20 20 13 11 15 17 20 20 22 22 23 24 27 27
18 18 15 11 10 13 15 17 13 12 13 13 12 13 15 15 15 15 14 15 18 21 22 24 25 26 26 22 21 20 17 14 12 11 14 16 19 22 25 23 24 24 27
Wind_Direction
110 95 91 88 71 69 53 55 45 20 9 10 351 15 19 21 25 25 27 3 349 359 356 323 311 292 266 254 252 253 251 248 243 243 241 236 245 243 240 239 227 218 217
76 76 71 68 78 62 44 34 14 354 14 13 17 12 348 354 15 26 18 10 8 4 5 1 340 321 308 293 278 265 258 252 242 240 238 234 239 242 240 241 229 221 218
68 76 71 58 66 55 36 18 15 8 19 53 43 37 3 334 15 13 10 8 358 358 358 6 358 343 337 325 309 292 274 261 251 241 236 235 235 235 232 226 225 220 224
81 80 48 57 61 44 36 30 33 28 14 28 9 1 2 8 5 348 357 357 352 357 358 358 2 355 337 331 324 313 296 282 270 259 244 236 233 229 227 226 223 222 216
59 59 46 53 63 47 38 33 27 28 10 17 21 10 354 15 4 348 346 342 345 349 353 354 358 354 355 351 342 318 299 287 274 265 256 246 237 232 231 227 227 228 229
81 78 62 56 50 40 32 26 33 33 25 21 18 5 347 357 347 339 336 340 342 341 342 345 346 351 346 349 344 330 310 293 284 273 261 250 238 229 228 229 229 236 231
79 69 68 60 50 39 35 34 33 33 29 10 6 3 353 344 345 344 341 336 334 336 338 337 341 344 343 348 353 356 319 295 289 280 269 254 240 231 225 226 226 228 233
77 62 62 52 44 37 32 25 21 25 28 23 7 7 2 355 351 347 339 332 333 331 330 330 335 341 346 344 343 345 349 318 291 278 271 254 236 230 221 220 222 226 229
100 71 59 46 39 34 33 27 24 22 17 19 20 14 8 360 347 340 333 330 329 330 326 321 326 327 324 343 325 334 335 331 304 284 270 252 235 228 219 217 218 219 214
104 75 66 53 40 27 29 28 27 26 23 13 12 14 15 11 353 340 335 328 325 327 318 314 316 334 315 339 326 319 339 332 312 292 273 254 233 220 217 216 217 213 216
97 86 72 61 40 29 19 22 24 22 22 21 14 10 9 8 3 354 339 328 322 328 322 321 306 328 306 329 314 337 335 346 327 306 283 254 226 213 216 213 213 209 206
84 74 64 60 40 23 9 9 21 14 17 15 14 12 9 4 3 355 344 331 332 335 332 320 311 332 314 315 323 326 337 334 344 341 289 248 220 210 210 212 209 207 203
212 232 16 34 35 20 13 7 13 14 12 10 12 12 9 5 4 359 348 342 340 343 338 327 299 303 306 312 314 331 312 322 343 346 314 247 216 210 210 212 212 210 203
252 266 310 324 2 359 354 356 8 10 10 8 8 10 10 6 6 0 352 351 346 345 341 329 301 308 323 314 319 322 342 339 347 358 342 254 224 217 209 217 219 220 214
250 265 285 286 313 329 335 347 353 358 359 8 7 8 5 5 4 2 356 357 355 351 350 342 325 324 317 308 327 339 332 343 333 351 1 286 230 225 232 228 222 219 216
252 263 282 277 293 301 320 335 340 349 349 357 3 6 5 3 3 2 358 1 359 357 360 351 342 336 345 338 344 335 332 349 340 359 37 95 6 178 231 238 222 243 224
263 263 271 279 289 292 305 320 326 333 340 345 356 1 7 2 1 1 1 2 360 1 3 1 0 1 5 350 359 346 355 7 28 63 88 95 104 21 353 239 271 224 201
262 272 283 290 293 300 303 314 315 320 326 336 344 354 4 3 360 0 3 2 3 3 4 8 4 3 2 2 343 5 2 21 45 87 108 111 105 56 18 356 306 163 166
265 275 277 283 293 300 303 311 312 317 319 328 337 348 358 2 360 360 3 3 5 7 6 11 9 4 11 8 14 29 28 41 82 100 116 105 84 54 45 36 57 153 158
265 281 289 293 297 297 296 301 307 314 316 321 331 344 352 359 358 0 2 6 5 10 9 12 19 17 24 29 34 37 49 50 89 104 120 112 81 74 63 56 83 141 149
262 274 295 305 310 304 291 295 300 307 313 315 328 341 346 356 356 360 3 6 5 11 13 12 24 25 28 35 38 42 57 72 99 118 123 128 119 93 78 71 67 139 151
259 266 277 282 293 312 317 298 292 296 305 309 327 337 339 352 354 357 4 6 4 12 15 16 24 32 28 32 45 51 57 83 109 125 125 137 137 100 95 85 77 94 145
263 269 272 277 281 288 299 306 296 285 291 307 322 330 332 344 351 355 5 7 6 9 17 20 25 38 36 32 52 55 61 84 118 127 125 127 136 111 114 100 92 93 111
269 272 274 275 276 276 285 292 302 277 281 298 310 317 324 337 344 352 3 8 5 9 18 21 27 38 43 36 55 68 67 89 120 132 129 132 142 137 123 119 115 109 110
272 274 273 273 269 267 275 285 298 273 275 290 297 306 315 329 337 347 357 9 8 10 17 19 29 40 46 46 50 62 78 88 114 136 136 141 144 154 147 140 134 131 125
266 270 268 269 275 273 275 283 287 268 272 277 286 296 306 318 328 340 349 7 12 10 16 18 30 44 50 52 58 63 67 88 106 122 142 144 155 159 162 157 151 146 144
Height
3206 3205 3204 3203 3203 3202 3201 3199 3197 3194 3193 3190 3191 3189 3187 3185 3183 3181 3179 3178 3177 3175 3171 3169 3166 3164 3163 3162 3161 3160 3159 3159 3160 3162 3163 3164 3163 3167 3169 3173 3174 3178 3182
3209 3207 3206 3204 3202 3202 3201 3199 3198 3195 3193 3191 3188 3187 3185 3185 3183 3181 3179 3175 3172 3171 3170 3167 3164 3161 3160 3157 3155 3154 3153 3153 3154 3154 3156 3158 3159 3160 3162 3165 3168 3172 3176
3209 3209 3208 3206 3203 3202 3200 3198 3196 3193 3192 3191 3189 3185 3186 3185 3182 3180 3177 3175 3173 3168 3164 3164 3161 3158 3156 3153 3151 3149 3148 3147 3147 3147 3148 3150 3151 3153 3155 3158 3161 3166 3169
3211 3210 3208 3206 3204 3202 3200 3199 3196 3194 3192 3191 3190 3187 3186 3185 3182 3181 3178 3175 3171 3167 3163 3159 3158 3155 3152 3149 3146 3144 3143 3141 3140 3140 3140 3141 3143 3145 3148 3151 3154 3158 3163
3211 3210 3208 3207 3206 3204 3201 3198 3196 3195 3192 3191 3190 3188 3184 3183 3183 3180 3177 3175 3170 3166 3163 3158 3154 3150 3147 3145 3142 3139 3137 3135 3133 3132 3132 3133 3135 3137 3140 3143 3147 3150 3155
3213 3212 3209 3208 3207 3205 3201 3199 3197 3195 3193 3191 3190 3188 3185 3182 3181 3179 3176 3171 3167 3164 3159 3156 3152 3148 3144 3141 3138 3134 3130 3128 3127 3126 3125 3125 3128 3130 3133 3136 3139 3142 3144
3213 3213 3211 3209 3208 3206 3204 3200 3198 3196 3194 3191 3188 3186 3184 3181 3180 3177 3171 3167 3163 3159 3155 3152 3149 3145 3141 3137 3135 3132 3128 3124 3120 3118 3119 3118 3120 3123 3126 3129 3133 3135 3138
3214 3213 3211 3210 3209 3207 3204 3201 3199 3197 3195 3192 3189 3186 3183 3182 3178 3174 3169 3163 3160 3156 3151 3149 3146 3142 3139 3133 3131 3128 3124 3120 3116 3114 3113 3112 3114 3116 3119 3123 3127 3130 3133
3216 3214 3212 3210 3209 3208 3205 3204 3201 3198 3195 3193 3190 3187 3183 3181 3175 3170 3166 3162 3157 3153 3149 3144 3140 3140 3135 3131 3126 3123 3121 3116 3112 3109 3108 3107 3109 3111 3114 3119 3123 3126 3130
3216 3215 3214 3212 3210 3209 3207 3205 3202 3199 3196 3193 3189 3186 3183 3180 3175 3170 3166 3160 3154 3151 3146 3140 3137 3135 3131 3127 3123 3119 3115 3111 3108 3105 3103 3102 3104 3106 3110 3114 3119 3122 3125
3217 3216 3215 3213 3212 3210 3209 3206 3203 3200 3197 3194 3190 3186 3181 3177 3174 3170 3164 3160 3153 3147 3143 3138 3135 3132 3128 3122 3119 3113 3112 3107 3104 3100 3099 3098 3100 3102 3106 3110 3115 3118 3122
3218 3216 3216 3214 3213 3211 3210 3207 3204 3200 3197 3193 3189 3186 3182 3177 3173 3169 3164 3157 3152 3147 3140 3136 3132 3128 3126 3121 3114 3111 3107 3106 3102 3098 3096 3096 3097 3098 3102 3106 3111 3115 3120
3218 3217 3216 3215 3213 3212 3210 3207 3204 3201 3197 3193 3190 3186 3182 3176 3172 3167 3161 3155 3149 3143 3137 3132 3128 3126 3121 3117 3113 3109 3106 3103 3100 3096 3093 3093 3094 3095 3099 3103 3107 3111 3116
3216 3216 3215 3214 3213 3211 3210 3207 3204 3201 3197 3192 3189 3186 3181 3175 3171 3165 3160 3155 3148 3141 3135 3129 3125 3123 3118 3113 3109 3106 3103 3101 3098 3094 3092 3092 3092 3093 3096 3099 3103 3106 3111
3215 3215 3214 3213 3212 3211 3209 3207 3204 3201 3196 3192 3189 3185 3180 3175 3170 3164 3158 3153 3147 3139 3133 3126 3122 3118 3115 3110 3105 3104 3101 3098 3095 3093 3091 3091 3091 3092 3093 3094 3096 3099 3104
3213 3213 3213 3211 3210 3209 3207 3205 3202 3199 3196 3192 3188 3184 3179 3174 3168 3163 3157 3151 3145 3137 3131 3125 3119 3115 3110 3107 3103 3101 3098 3095 3093 3092 3091 3090 3090 3090 3091 3090 3090 3091 3090
3211 3211 3210 3209 3208 3206 3205 3203 3201 3198 3195 3191 3187 3183 3178 3173 3168 3162 3156 3150 3142 3135 3130 3123 3116 3110 3107 3104 3101 3100 3097 3094 3092 3091 3092 3090 3090 3090 3087 3085 3082 3075 3079
3208 3209 3208 3207 3206 3204 3202 3201 3198 3196 3193 3190 3187 3182 3178 3173 3168 3162 3156 3150 3143 3135 3129 3121 3114 3110 3106 3103 3101 3100 3097 3094 3092 3092 3092 3092 3091 3090 3087 3081 3072 3073 3080
3206 3206 3207 3206 3204 3202 3200 3199 3196 3194 3191 3188 3185 3182 3177 3172 3167 3162 3155 3149 3142 3135 3128 3122 3115 3110 3106 3102 3101 3098 3097 3095 3094 3094 3094 3094 3093 3093 3090 3080 3074 3077 3085
3203 3203 3203 3202 3201 3200 3198 3196 3194 3192 3189 3186 3183 3180 3176 3172 3166 3161 3155 3149 3143 3136 3129 3123 3117 3112 3107 3102 3100 3099 3098 3097 3096 3097 3098 3097 3097 3098 3093 3085 3080 3084 3093
3200 3200 3200 3200 3200 3198 3195 3193 3192 3190 3188 3185 3182 3178 3175 3171 3166 3161 3156 3149 3143 3137 3129 3122 3118 3113 3108 3104 3101 3100 3098 3098 3099 3100 3101 3102 3101 3101 3100 3094 3092 3094 3101
3197 3197 3197 3196 3196 3195 3193 3190 3189 3188 3186 3183 3180 3177 3174 3171 3165 3160 3156 3150 3144 3139 3133 3125 3119 3115 3110 3106 3103 3101 3101 3100 3103 3104 3105 3106 3107 3107 3108 3106 3103 3102 3109
3194 3194 3193 3192 3191 3191 3189 3187 3185 3184 3183 3180 3178 3176 3173 3170 3165 3161 3157 3152 3147 3142 3136 3130 3123 3118 3113 3110 3106 3102 3103 3104 3105 3107 3108 3111 3113 3114 3116 3116 3116 3118 3118
3189 3188 3187 3187 3187 3186 3185 3183 3182 3180 3179 3178 3176 3174 3171 3169 3165 3161 3157 3154 3149 3144 3139 3133 3128 3122 3117 3113 3109 3107 3105 3108 3109 3111 3112 3116 3119 3122 3124 3126 3127 3129 3132
3184 3182 3182 3182 3180 3181 3180 3179 3178 3178 3176 3175 3174 3172 3170 3167 3165 3162 3158 3155 3150 3146 3142 3137 3131 3126 3120 3118 3113 3110 3112 3111 3114 3115 3117 3118 3122 3127 3130 3132 3135 3137 3140
3177 3177 3177 3178 3177 3177 3176 3175 3175 3174 3173 3172 3171 3170 3167 3166 3163 3161 3158 3154 3150 3147 3144 3140 3135 3129 3124 3122 3120 3116 3114 3114 3116 3119 3120 3122 3124 3127 3131 3136 3138 3142 3145